Time,TemperatureF,DewpointF,PressureIn,WindDirection,WindDirectionDegrees,WindSpeedMPH,WindSpeedGustMPH,Humidity,HourlyPrecipIn,Conditions,Clouds,dailyrainin,SoftwareType,DateUTC
2013-05-24 00:00:00,78.0,69.8,29.95,ESE,121,7.0,8.0,76,0.00,,,0.00,Wunderground v.1.15,2013-05-24 05:00:00,
2013-05-24 00:10:00,77.9,69.7,29.95,ESE,119,7.0,7.0,76,0.00,,,0.00,Wunderground v.1.15,2013-05-24 05:10:00,
2013-05-24 00:15:00,77.8,69.6,29.95,ESE,114,6.0,7.0,76,0.00,,,0.00,Wunderground v.1.15,2013-05-24 05:15:00,
2013-05-24 00:20:00,77.9,69.7,29.95,ESE,108,5.0,5.0,76,0.00,,,0.00,Wunderground v.1.15,2013-05-24 05:20:00,
2013-05-24 00:25:00,77.9,69.7,29.96,ESE,106,3.0,5.0,76,0.00,,,0.00,Wunderground v.1.15,2013-05-24 05:25:00,
2013-05-24 00:30:00,77.8,69.6,29.97,ESE,107,2.0,6.0,76,0.00,,,0.00,Wunderground v.1.15,2013-05-24 05:30:00,
2013-05-24 00:40:00,77.8,69.6,29.97,ESE,107,5.0,8.0,76,0.00,,,0.00,Wunderground v.1.15,2013-05-24 05:40:00,
2013-05-24 00:45:00,77.8,69.6,29.97,ESE,110,5.0,8.0,76,0.00,,,0.00,Wunderground v.1.15,2013-05-24 05:45:00,
2013-05-24 00:50:00,77.8,69.6,29.97,ESE,109,5.0,6.0,76,0.00,,,0.00,Wunderground v.1.15,2013-05-24 05:50:00,
2013-05-24 00:55:00,77.8,70.0,29.97,ESE,111,5.0,6.0,77,0.00,,,0.00,Wunderground v.1.15,2013-05-24 05:55:00,
2013-05-24 01:00:00,77.7,69.9,29.97,ESE,111,4.0,6.0,77,0.00,,,0.00,Wunderground v.1.15,2013-05-24 06:00:00,
2013-05-24 01:10:00,77.5,69.7,29.97,ESE,112,4.0,5.0,77,0.00,,,0.00,Wunderground v.1.15,2013-05-24 06:10:00,
2013-05-24 01:15:00,77.5,69.7,29.97,ESE,116,4.0,5.0,77,0.00,,,0.00,Wunderground v.1.15,2013-05-24 06:15:00,
2013-05-24 01:25:00,77.4,69.6,29.97,ESE,109,6.0,7.0,77,0.00,,,0.00,Wunderground v.1.15,2013-05-24 06:25:00,
2013-05-24 01:30:00,77.3,69.5,29.97,ESE,106,6.0,6.0,77,0.00,,,0.00,Wunderground v.1.15,2013-05-24 06:30:00,
2013-05-24 01:35:00,77.3,69.5,29.97,ESE,106,4.0,6.0,77,0.00,,,0.00,Wunderground v.1.15,2013-05-24 06:35:00,
2013-05-24 01:40:00,77.2,69.8,29.97,ESE,111,4.0,8.0,78,0.00,,,0.00,Wunderground v.1.15,2013-05-24 06:40:00,
2013-05-24 01:50:00,77.0,69.6,29.97,ESE,113,6.0,8.0,78,0.00,,,0.00,Wunderground v.1.15,2013-05-24 06:50:00,
2013-05-24 01:55:00,76.9,69.9,29.97,ESE,116,6.0,8.0,79,0.00,,,0.00,Wunderground v.1.15,2013-05-24 06:55:00,
2013-05-24 02:00:00,76.7,69.7,29.97,ESE,122,7.0,7.0,79,0.00,,,0.00,Wunderground v.1.15,2013-05-24 07:00:00,
2013-05-24 02:10:00,76.5,69.9,29.97,ESE,121,7.0,7.0,80,0.00,,,0.00,Wunderground v.1.15,2013-05-24 07:10:00,
2013-05-24 02:15:00,76.5,69.9,29.97,SE,125,6.0,8.0,80,0.00,,,0.00,Wunderground v.1.15,2013-05-24 07:15:00,
2013-05-24 02:20:00,76.4,69.8,29.97,ESE,112,7.0,9.0,80,0.00,,,0.00,Wunderground v.1.15,2013-05-24 07:20:00,
2013-05-24 02:25:00,76.4,69.8,29.97,SE,132,7.0,9.0,80,0.00,,,0.00,Wunderground v.1.15,2013-05-24 07:25:00,
2013-05-24 02:35:00,76.2,69.9,29.97,SE,125,6.0,12.0,81,0.00,,,0.00,Wunderground v.1.15,2013-05-24 07:35:00,
2013-05-24 02:40:00,76.2,69.9,29.97,ESE,122,6.0,6.0,81,0.00,,,0.00,Wunderground v.1.15,2013-05-24 07:40:00,
2013-05-24 02:45:00,76.0,69.7,29.97,ESE,119,5.0,6.0,81,0.00,,,0.00,Wunderground v.1.15,2013-05-24 07:45:00,
2013-05-24 02:50:00,76.0,69.7,29.97,ESE,119,4.0,5.0,81,0.00,,,0.00,Wunderground v.1.15,2013-05-24 07:50:00,
2013-05-24 02:55:00,75.8,69.9,29.97,ESE,119,4.0,5.0,82,0.00,,,0.00,Wunderground v.1.15,2013-05-24 07:55:00,
2013-05-24 03:00:00,75.7,69.8,29.97,ESE,121,4.0,5.0,82,0.00,,,0.00,Wunderground v.1.15,2013-05-24 08:00:00,
2013-05-24 03:10:00,75.5,70.0,29.97,SE,132,4.0,7.0,83,0.00,,,0.00,Wunderground v.1.15,2013-05-24 08:10:00,
2013-05-24 03:15:00,75.4,69.9,29.97,SE,134,4.0,7.0,83,0.00,,,0.00,Wunderground v.1.15,2013-05-24 08:15:00,
2013-05-24 03:25:00,75.2,69.7,29.98,SE,132,4.0,5.0,83,0.00,,,0.00,Wunderground v.1.15,2013-05-24 08:25:00,
2013-05-24 03:30:00,75.1,69.6,29.98,SE,132,4.0,5.0,83,0.00,,,0.00,Wunderground v.1.15,2013-05-24 08:30:00,
2013-05-24 03:35:00,75.0,69.8,29.98,SE,141,4.0,5.0,84,0.00,,,0.00,Wunderground v.1.15,2013-05-24 08:35:00,
2013-05-24 03:40:00,74.9,69.7,29.98,SE,140,4.0,4.0,84,0.00,,,0.00,Wunderground v.1.15,2013-05-24 08:40:00,
2013-05-24 03:50:00,74.9,69.7,29.97,SE,144,5.0,5.0,84,0.00,,,0.00,Wunderground v.1.15,2013-05-24 08:50:00,
2013-05-24 03:55:00,74.9,70.1,29.97,SE,144,5.0,5.0,85,0.00,,,0.00,Wunderground v.1.15,2013-05-24 08:55:00,
2013-05-24 04:00:00,74.8,70.0,29.97,SE,143,5.0,5.0,85,0.00,,,0.00,Wunderground v.1.15,2013-05-24 09:00:00,
2013-05-24 04:10:00,74.7,69.9,29.97,SE,143,3.0,5.0,85,0.00,,,0.00,Wunderground v.1.15,2013-05-24 09:10:00,
2013-05-24 04:15:00,74.6,69.8,29.97,SE,143,3.0,5.0,85,0.00,,,0.00,Wunderground v.1.15,2013-05-24 09:15:00,
2013-05-24 04:20:00,74.5,69.7,29.98,SE,143,1.0,1.0,85,0.00,,,0.00,Wunderground v.1.15,2013-05-24 09:20:00,
2013-05-24 04:30:00,74.3,69.8,29.98,SE,143,0.0,0.0,86,0.00,,,0.00,Wunderground v.1.15,2013-05-24 09:30:00,
2013-05-24 04:35:00,74.2,69.7,29.98,SE,143,0.0,0.0,86,0.00,,,0.00,Wunderground v.1.15,2013-05-24 09:35:00,
2013-05-24 04:40:00,74.1,69.6,29.98,SE,143,0.0,0.0,86,0.00,,,0.00,Wunderground v.1.15,2013-05-24 09:40:00,
2013-05-24 04:45:00,74.0,69.5,29.98,SE,143,1.0,5.0,86,0.00,,,0.00,Wunderground v.1.15,2013-05-24 09:45:00,
2013-05-24 04:55:00,73.8,69.7,29.98,SE,143,3.0,4.0,87,0.00,,,0.00,Wunderground v.1.15,2013-05-24 09:55:00,
2013-05-24 05:00:00,73.8,69.7,29.98,SE,143,2.0,4.0,87,0.00,,,0.00,Wunderground v.1.15,2013-05-24 10:00:00,
2013-05-24 05:10:00,73.7,69.9,29.98,SE,143,3.0,3.0,88,0.00,,,0.00,Wunderground v.1.15,2013-05-24 10:10:00,
2013-05-24 05:15:00,73.6,69.8,29.98,SE,143,2.0,3.0,88,0.00,,,0.00,Wunderground v.1.15,2013-05-24 10:15:00,
2013-05-24 05:20:00,73.6,69.8,29.98,SE,143,1.0,1.0,88,0.00,,,0.00,Wunderground v.1.15,2013-05-24 10:20:00,
2013-05-24 05:25:00,73.5,69.7,29.98,SE,143,0.0,1.0,88,0.00,,,0.00,Wunderground v.1.15,2013-05-24 10:25:00,
2013-05-24 05:30:00,73.4,70.0,29.98,SE,143,0.0,0.0,89,0.00,,,0.00,Wunderground v.1.15,2013-05-24 10:30:00,
2013-05-24 05:40:00,73.3,69.9,29.99,SE,143,0.0,0.0,89,0.00,,,0.00,Wunderground v.1.15,2013-05-24 10:40:00,
2013-05-24 05:45:00,73.2,69.8,29.99,SE,143,0.0,0.0,89,0.00,,,0.00,Wunderground v.1.15,2013-05-24 10:45:00,
2013-05-24 05:50:00,73.1,69.7,29.99,SE,143,0.0,0.0,89,0.00,,,0.00,Wunderground v.1.15,2013-05-24 10:50:00,
2013-05-24 05:55:00,73.0,69.6,29.99,SE,143,0.0,0.0,89,0.00,,,0.00,Wunderground v.1.15,2013-05-24 10:55:00,
2013-05-24 06:00:00,73.0,69.6,29.99,SE,143,0.0,0.0,89,0.00,,,0.00,Wunderground v.1.15,2013-05-24 11:00:00,
2013-05-24 06:10:00,72.9,69.8,30.00,SE,143,0.0,0.0,90,0.00,,,0.00,Wunderground v.1.15,2013-05-24 11:10:00,
2013-05-24 06:15:00,72.8,69.7,30.00,SE,143,0.0,0.0,90,0.00,,,0.00,Wunderground v.1.15,2013-05-24 11:15:00,
2013-05-24 06:20:00,72.8,69.7,30.00,SE,143,0.0,0.0,90,0.00,,,0.00,Wunderground v.1.15,2013-05-24 11:20:00,
2013-05-24 06:30:00,72.7,69.6,29.99,SE,143,1.0,4.0,90,0.00,,,0.00,Wunderground v.1.15,2013-05-24 11:30:00,
2013-05-24 06:35:00,72.6,69.8,29.99,SE,143,2.0,4.0,91,0.00,,,0.00,Wunderground v.1.15,2013-05-24 11:35:00,
2013-05-24 06:40:00,72.6,69.8,30.00,SE,143,1.0,1.0,91,0.00,,,0.00,Wunderground v.1.15,2013-05-24 11:40:00,
2013-05-24 06:50:00,72.5,69.7,30.00,SE,143,0.0,1.0,91,0.00,,,0.00,Wunderground v.1.15,2013-05-24 11:50:00,
2013-05-24 06:55:00,72.5,69.7,30.00,SE,143,0.0,1.0,91,0.00,,,0.00,Wunderground v.1.15,2013-05-24 11:55:00,
2013-05-24 07:00:00,72.6,69.8,30.01,SE,143,0.0,0.0,91,0.00,,,0.00,Wunderground v.1.15,2013-05-24 12:00:00,
2013-05-24 07:10:00,72.8,70.3,30.02,SE,143,1.0,1.0,92,0.00,,,0.00,Wunderground v.1.15,2013-05-24 12:10:00,
2013-05-24 07:15:00,72.9,70.4,30.03,SE,143,1.0,1.0,92,0.00,,,0.00,Wunderground v.1.15,2013-05-24 12:15:00,
2013-05-24 07:20:00,73.0,70.5,30.03,SE,143,0.0,0.0,92,0.00,,,0.00,Wunderground v.1.15,2013-05-24 12:20:00,
2013-05-24 07:25:00,73.1,70.6,30.03,SE,143,0.0,0.0,92,0.00,,,0.00,Wunderground v.1.15,2013-05-24 12:25:00,
2013-05-24 07:30:00,73.3,70.8,30.04,SE,143,0.0,0.0,92,0.00,,,0.00,Wunderground v.1.15,2013-05-24 12:30:00,
2013-05-24 07:40:00,73.6,71.1,30.05,SE,143,0.0,0.0,92,0.00,,,0.00,Wunderground v.1.15,2013-05-24 12:40:00,
2013-05-24 07:45:00,73.8,71.3,30.05,SE,143,0.0,4.0,92,0.00,,,0.00,Wunderground v.1.15,2013-05-24 12:45:00,
2013-05-24 07:50:00,74.0,71.5,30.05,SE,143,1.0,1.0,92,0.00,,,0.00,Wunderground v.1.15,2013-05-24 12:50:00,
2013-05-24 07:55:00,74.3,71.5,30.06,SE,143,1.0,2.0,91,0.00,,,0.00,Wunderground v.1.15,2013-05-24 12:55:00,
2013-05-24 08:00:00,74.6,71.8,30.06,SE,136,1.0,1.0,91,0.00,,,0.00,Wunderground v.1.15,2013-05-24 13:00:00,
2013-05-24 08:10:00,75.2,72.1,30.06,SSE,155,1.0,1.0,90,0.00,,,0.00,Wunderground v.1.15,2013-05-24 13:10:00,
2013-05-24 08:15:00,75.5,72.4,30.06,SSE,153,1.0,1.0,90,0.00,,,0.00,Wunderground v.1.15,2013-05-24 13:15:00,
2013-05-24 08:25:00,76.3,72.8,30.06,SSE,153,1.0,1.0,89,0.00,,,0.00,Wunderground v.1.15,2013-05-24 13:25:00,
2013-05-24 08:30:00,76.7,72.9,30.06,SSE,153,1.0,5.0,88,0.00,,,0.00,Wunderground v.1.15,2013-05-24 13:30:00,
2013-05-24 08:35:00,77.2,73.0,30.06,SE,142,2.0,5.0,87,0.00,,,0.00,Wunderground v.1.15,2013-05-24 13:35:00,
2013-05-24 08:40:00,77.6,73.1,30.06,SE,142,2.0,2.0,86,0.00,,,0.00,Wunderground v.1.15,2013-05-24 13:40:00,
2013-05-24 08:45:00,78.0,73.1,30.06,SE,142,2.0,7.0,85,0.00,,,0.00,Wunderground v.1.15,2013-05-24 13:45:00,
2013-05-24 08:55:00,78.8,73.6,30.07,SE,141,1.0,9.0,84,0.00,,,0.00,Wunderground v.1.15,2013-05-24 13:55:00,
2013-05-24 09:00:00,79.3,73.7,30.07,SE,140,3.0,3.0,83,0.00,,,0.00,Wunderground v.1.15,2013-05-24 14:00:00,
2013-05-24 09:10:00,80.0,73.6,30.07,SE,142,2.0,5.0,81,0.00,,,0.00,Wunderground v.1.15,2013-05-24 14:10:00,
2013-05-24 09:15:00,80.2,73.8,30.08,SSE,148,1.0,6.0,81,0.00,,,0.00,Wunderground v.1.15,2013-05-24 14:15:00,
2013-05-24 09:20:00,80.1,73.7,30.08,SE,142,4.0,4.0,81,0.00,,,0.00,Wunderground v.1.15,2013-05-24 14:20:00,
2013-05-24 09:25:00,80.1,73.7,30.07,SE,145,4.0,5.0,81,0.00,,,0.00,Wunderground v.1.15,2013-05-24 14:25:00,
2013-05-24 09:35:00,79.8,73.4,30.07,SE,126,4.0,7.0,81,0.00,,,0.00,Wunderground v.1.15,2013-05-24 14:35:00,
2013-05-24 09:40:00,79.9,73.5,30.07,SE,124,5.0,5.0,81,0.00,,,0.00,Wunderground v.1.15,2013-05-24 14:40:00,
2013-05-24 09:45:00,80.0,73.3,30.07,SE,127,6.0,6.0,80,0.00,,,0.00,Wunderground v.1.15,2013-05-24 14:45:00,
2013-05-24 09:50:00,80.1,73.0,30.07,SE,132,5.0,5.0,79,0.00,,,0.00,Wunderground v.1.15,2013-05-24 14:50:00,
2013-05-24 09:55:00,80.0,72.9,30.07,SE,136,5.0,6.0,79,0.00,,,0.00,Wunderground v.1.15,2013-05-24 14:55:00,
2013-05-24 10:00:00,80.2,73.5,30.08,SE,136,6.0,6.0,80,0.00,,,0.00,Wunderground v.1.15,2013-05-24 15:00:00,
2013-05-24 10:10:00,80.3,73.2,30.08,SE,136,6.0,6.0,79,0.00,,,0.00,Wunderground v.1.15,2013-05-24 15:10:00,
2013-05-24 10:20:00,80.5,73.4,30.08,SE,127,7.0,7.0,79,0.00,,,0.00,Wunderground v.1.15,2013-05-24 15:20:00,
2013-05-24 10:25:00,81.4,73.9,30.08,SSE,148,5.0,7.0,78,0.00,,,0.00,Wunderground v.1.15,2013-05-24 15:25:00,
2013-05-24 10:30:00,81.5,73.6,30.08,SSE,154,4.0,4.0,77,0.00,,,0.00,Wunderground v.1.15,2013-05-24 15:30:00,
2013-05-24 10:35:00,81.2,72.5,30.08,SSE,157,5.0,7.0,75,0.00,,,0.00,Wunderground v.1.15,2013-05-24 15:35:00,
2013-05-24 10:40:00,80.5,72.6,30.08,SSE,164,5.0,7.0,77,0.00,,,0.00,Wunderground v.1.15,2013-05-24 15:40:00,
2013-05-24 10:50:00,80.3,72.0,30.09,SSW,195,7.0,7.0,76,0.00,,,0.00,Wunderground v.1.15,2013-05-24 15:50:00,
2013-05-24 10:55:00,80.6,72.7,30.09,South,186,7.0,10.0,77,0.00,,,0.00,Wunderground v.1.15,2013-05-24 15:55:00,
2013-05-24 11:00:00,81.3,72.2,30.09,SSE,161,7.0,7.0,74,0.00,,,0.00,Wunderground v.1.15,2013-05-24 16:00:00,
2013-05-24 11:10:00,82.4,72.5,30.09,South,169,6.0,8.0,72,0.00,,,0.00,Wunderground v.1.15,2013-05-24 16:10:00,
2013-05-24 11:15:00,83.2,72.8,30.09,SSE,156,6.0,10.0,71,0.00,,,0.00,Wunderground v.1.15,2013-05-24 16:15:00,
2013-05-24 11:20:00,83.1,72.7,30.09,SSE,167,7.0,7.0,71,0.00,,,0.00,Wunderground v.1.15,2013-05-24 16:20:00,
2013-05-24 11:30:00,84.0,72.7,30.09,SE,142,7.0,7.0,69,0.00,,,0.00,Wunderground v.1.15,2013-05-24 16:30:00,
2013-05-24 11:35:00,84.1,72.8,30.09,SE,125,9.0,13.0,69,0.00,,,0.00,Wunderground v.1.15,2013-05-24 16:35:00,
2013-05-24 11:40:00,84.4,73.5,30.09,SE,138,8.0,8.0,70,0.00,,,0.00,Wunderground v.1.15,2013-05-24 16:40:00,
2013-05-24 11:45:00,84.5,72.8,30.09,SE,143,7.0,11.0,68,0.00,,,0.00,Wunderground v.1.15,2013-05-24 16:45:00,
2013-05-24 11:50:00,84.3,72.6,30.09,SSE,153,7.0,7.0,68,0.00,,,0.00,Wunderground v.1.15,2013-05-24 16:50:00,
2013-05-24 12:00:00,84.4,72.2,30.10,SE,146,7.0,7.0,67,0.00,,,0.00,Wunderground v.1.15,2013-05-24 17:00:00,
2013-05-24 12:10:00,83.4,71.7,30.10,ESE,109,8.0,8.0,68,0.00,,,0.00,Wunderground v.1.15,2013-05-24 17:10:00,
2013-05-24 12:15:00,83.0,71.3,30.10,SE,128,7.0,8.0,68,0.00,,,0.00,Wunderground v.1.15,2013-05-24 17:15:00,
2013-05-24 12:20:00,82.9,71.7,30.10,SE,137,7.0,9.0,69,0.00,,,0.00,Wunderground v.1.15,2013-05-24 17:20:00,
2013-05-24 12:25:00,82.9,71.3,30.10,ESE,121,9.0,9.0,68,0.00,,,0.00,Wunderground v.1.15,2013-05-24 17:25:00,
2013-05-24 12:30:00,82.6,71.4,30.10,SE,137,10.0,10.0,69,0.00,,,0.00,Wunderground v.1.15,2013-05-24 17:30:00,
2013-05-24 12:35:00,82.4,72.0,30.10,SE,125,9.0,10.0,71,0.00,,,0.00,Wunderground v.1.15,2013-05-24 17:35:00,
2013-05-24 12:45:00,80.5,73.4,30.09,East,98,6.0,8.0,79,0.40,,,0.03,Wunderground v.1.15,2013-05-24 17:45:00,
2013-05-24 12:50:00,79.2,73.2,30.09,East,98,4.0,4.0,82,0.17,,,0.04,Wunderground v.1.15,2013-05-24 17:50:00,
2013-05-24 12:55:00,78.6,73.7,30.09,East,98,3.0,4.0,85,0.08,,,0.04,Wunderground v.1.15,2013-05-24 17:55:00,
2013-05-24 13:00:00,78.4,74.2,30.09,East,97,1.0,1.0,87,0.05,,,0.04,Wunderground v.1.15,2013-05-24 18:00:00,
2013-05-24 13:10:00,79.0,74.5,30.09,SSW,200,3.0,3.0,86,0.00,,,0.04,Wunderground v.1.15,2013-05-24 18:10:00,
2013-05-24 13:15:00,79.5,74.2,30.08,ESE,110,4.0,4.0,84,0.00,,,0.04,Wunderground v.1.15,2013-05-24 18:15:00,
2013-05-24 13:20:00,80.0,74.4,30.08,ESE,120,5.0,5.0,83,0.00,,,0.04,Wunderground v.1.15,2013-05-24 18:20:00,
2013-05-24 13:30:00,80.7,72.4,30.08,SE,132,8.0,8.0,76,0.00,,,0.04,Wunderground v.1.15,2013-05-24 18:30:00,
2013-05-24 13:35:00,81.0,72.7,30.08,SE,130,7.0,8.0,76,0.00,,,0.04,Wunderground v.1.15,2013-05-24 18:35:00,
2013-05-24 13:40:00,81.4,72.7,30.08,SE,142,6.0,7.0,75,0.00,,,0.04,Wunderground v.1.15,2013-05-24 18:40:00,
2013-05-24 13:45:00,81.6,72.5,30.07,SE,133,7.0,7.0,74,0.00,,,0.04,Wunderground v.1.15,2013-05-24 18:45:00,
2013-05-24 13:55:00,81.8,72.7,30.07,SE,124,7.0,11.0,74,0.00,,,0.04,Wunderground v.1.15,2013-05-24 18:55:00,
2013-05-24 14:00:00,81.8,71.9,30.07,ESE,123,6.0,6.0,72,0.00,,,0.04,Wunderground v.1.15,2013-05-24 19:00:00,
2013-05-24 14:10:00,81.9,72.0,30.06,SE,138,6.0,6.0,72,0.00,,,0.04,Wunderground v.1.15,2013-05-24 19:10:00,
2013-05-24 14:15:00,81.8,71.9,30.06,SE,136,6.0,10.0,72,0.00,,,0.04,Wunderground v.1.15,2013-05-24 19:15:00,
2013-05-24 14:20:00,81.8,71.9,30.06,ESE,118,6.0,6.0,72,0.00,,,0.04,Wunderground v.1.15,2013-05-24 19:20:00,
2013-05-24 14:25:00,82.2,71.9,30.06,SE,140,6.0,6.0,71,0.00,,,0.04,Wunderground v.1.15,2013-05-24 19:25:00,
2013-05-24 14:30:00,82.8,73.3,30.05,East,98,6.0,12.0,73,0.00,,,0.04,Wunderground v.1.15,2013-05-24 19:30:00,
2013-05-24 14:40:00,83.8,73.8,30.05,ESE,120,6.0,6.0,72,0.00,,,0.04,Wunderground v.1.15,2013-05-24 19:40:00,
2013-05-24 14:45:00,84.0,73.2,30.05,ESE,114,7.0,8.0,70,0.00,,,0.04,Wunderground v.1.15,2013-05-24 19:45:00,
2013-05-24 14:50:00,84.1,72.8,30.05,East,92,8.0,8.0,69,0.00,,,0.04,Wunderground v.1.15,2013-05-24 19:50:00,
2013-05-24 14:55:00,83.9,73.1,30.05,ESE,114,7.0,8.0,70,0.00,,,0.04,Wunderground v.1.15,2013-05-24 19:55:00,
2013-05-24 15:00:00,84.2,73.3,30.04,East,96,7.0,8.0,70,0.00,,,0.04,Wunderground v.1.15,2013-05-24 20:00:00,
2013-05-24 15:10:00,84.8,73.5,30.03,East,95,8.0,8.0,69,0.00,,,0.04,Wunderground v.1.15,2013-05-24 20:10:00,
2013-05-24 15:15:00,84.7,73.4,30.02,ESE,112,8.0,9.0,69,0.00,,,0.04,Wunderground v.1.15,2013-05-24 20:15:00,
2013-05-24 15:25:00,84.7,73.4,30.02,ESE,109,8.0,11.0,69,0.00,,,0.04,Wunderground v.1.15,2013-05-24 20:25:00,
2013-05-24 15:30:00,84.4,72.7,30.02,ESE,115,9.0,13.0,68,0.00,,,0.04,Wunderground v.1.15,2013-05-24 20:30:00,
2013-05-24 15:35:00,83.9,71.8,30.02,ESE,109,11.0,13.0,67,0.00,,,0.04,Wunderground v.1.15,2013-05-24 20:35:00,
2013-05-24 15:40:00,83.8,72.1,30.01,SE,140,10.0,10.0,68,0.00,,,0.04,Wunderground v.1.15,2013-05-24 20:40:00,
2013-05-24 15:45:00,83.8,72.5,30.01,ESE,107,8.0,12.0,69,0.00,,,0.04,Wunderground v.1.15,2013-05-24 20:45:00,
2013-05-24 15:55:00,83.5,71.8,30.00,ESE,118,9.0,9.0,68,0.00,,,0.04,Wunderground v.1.15,2013-05-24 20:55:00,
2013-05-24 16:00:00,83.3,71.6,30.01,ESE,115,9.0,9.0,68,0.00,,,0.04,Wunderground v.1.15,2013-05-24 21:00:00,
2013-05-24 16:10:00,83.0,72.2,30.00,ESE,105,9.0,9.0,70,0.00,,,0.04,Wunderground v.1.15,2013-05-24 21:10:00,
2013-05-24 16:15:00,82.9,72.5,30.00,ESE,123,8.0,9.0,71,0.00,,,0.04,Wunderground v.1.15,2013-05-24 21:15:00,
2013-05-24 16:20:00,82.8,72.4,30.00,ESE,121,7.0,7.0,71,0.00,,,0.04,Wunderground v.1.15,2013-05-24 21:20:00,
2013-05-24 16:25:00,82.8,72.4,30.01,SE,130,7.0,7.0,71,0.00,,,0.04,Wunderground v.1.15,2013-05-24 21:25:00,
2013-05-24 16:35:00,82.7,72.3,30.01,SE,138,8.0,9.0,71,0.00,,,0.04,Wunderground v.1.15,2013-05-24 21:35:00,
2013-05-24 16:40:00,82.7,72.3,30.01,ESE,111,7.0,7.0,71,0.00,,,0.04,Wunderground v.1.15,2013-05-24 21:40:00,
2013-05-24 16:45:00,82.8,72.4,30.01,SE,124,7.0,9.0,71,0.00,,,0.04,Wunderground v.1.15,2013-05-24 21:45:00,
2013-05-24 16:50:00,82.8,72.4,30.01,ESE,113,7.0,7.0,71,0.00,,,0.04,Wunderground v.1.15,2013-05-24 21:50:00,
2013-05-24 16:55:00,82.7,72.3,30.01,ESE,121,8.0,8.0,71,0.00,,,0.04,Wunderground v.1.15,2013-05-24 21:55:00,
2013-05-24 17:00:00,82.5,71.7,30.01,ESE,118,9.0,9.0,70,0.00,,,0.04,Wunderground v.1.15,2013-05-24 22:00:00,
2013-05-24 17:10:00,82.4,71.6,30.02,ESE,111,7.0,7.0,70,0.00,,,0.04,Wunderground v.1.15,2013-05-24 22:10:00,
2013-05-24 17:15:00,82.3,72.0,30.01,East,90,8.0,9.0,71,0.00,,,0.04,Wunderground v.1.15,2013-05-24 22:15:00,
2013-05-24 17:25:00,82.1,71.3,30.01,ESE,114,8.0,8.0,70,0.00,,,0.04,Wunderground v.1.15,2013-05-24 22:25:00,
2013-05-24 17:30:00,82.0,71.7,30.01,ESE,118,7.0,7.0,71,0.00,,,0.04,Wunderground v.1.15,2013-05-24 22:30:00,
2013-05-24 17:35:00,81.9,71.2,30.01,ESE,113,7.0,7.0,70,0.00,,,0.04,Wunderground v.1.15,2013-05-24 22:35:00,
2013-05-24 17:40:00,81.8,71.1,30.02,ESE,104,7.0,7.0,70,0.00,,,0.04,Wunderground v.1.15,2013-05-24 22:40:00,
2013-05-24 17:50:00,81.6,71.3,30.02,ESE,123,6.0,6.0,71,0.00,,,0.04,Wunderground v.1.15,2013-05-24 22:50:00,
2013-05-24 17:55:00,81.5,71.6,30.02,SE,134,6.0,6.0,72,0.00,,,0.04,Wunderground v.1.15,2013-05-24 22:55:00,
2013-05-24 18:00:00,81.3,71.4,30.02,ESE,123,6.0,6.0,72,0.00,,,0.04,Wunderground v.1.15,2013-05-24 23:00:00,
2013-05-24 18:10:00,80.9,71.0,30.02,SE,143,5.0,7.0,72,0.00,,,0.04,Wunderground v.1.15,2013-05-24 23:10:00,
2013-05-24 18:15:00,80.7,70.8,30.03,SE,139,6.0,7.0,72,0.00,,,0.04,Wunderground v.1.15,2013-05-24 23:15:00,
2013-05-24 18:20:00,80.5,71.0,30.03,SE,130,6.0,6.0,73,0.00,,,0.04,Wunderground v.1.15,2013-05-24 23:20:00,
2013-05-24 18:25:00,80.4,71.3,30.03,SE,143,6.0,6.0,74,0.00,,,0.04,Wunderground v.1.15,2013-05-24 23:25:00,
2013-05-24 18:35:00,80.2,71.2,30.03,SE,143,5.0,6.0,74,0.00,,,0.04,Wunderground v.1.15,2013-05-24 23:35:00,
2013-05-24 18:40:00,80.1,71.1,30.03,SE,144,4.0,7.0,74,0.00,,,0.04,Wunderground v.1.15,2013-05-24 23:40:00,
2013-05-24 18:45:00,80.0,71.4,30.02,SE,144,4.0,7.0,75,0.00,,,0.04,Wunderground v.1.15,2013-05-24 23:45:00,
2013-05-24 18:50:00,79.8,71.2,30.02,SE,143,5.0,5.0,75,0.00,,,0.04,Wunderground v.1.15,2013-05-24 23:50:00,
2013-05-24 19:00:00,79.6,71.4,30.03,SE,144,4.0,4.0,76,0.00,,,0.04,Wunderground v.1.15,2013-05-25 00:00:00,
2013-05-24 19:10:00,79.4,71.2,30.04,SSE,150,3.0,3.0,76,0.00,,,0.04,Wunderground v.1.15,2013-05-25 00:10:00,
2013-05-24 19:15:00,78.6,68.0,30.05,WSW,237,6.0,18.0,70,0.00,,,0.04,Wunderground v.1.15,2013-05-25 00:15:00,
2013-05-24 19:20:00,76.9,65.5,30.06,SW,236,11.0,11.0,68,0.00,,,0.04,Wunderground v.1.15,2013-05-25 00:20:00,
2013-05-24 19:25:00,75.2,64.3,30.06,WSW,243,10.0,13.0,69,0.00,,,0.04,Wunderground v.1.15,2013-05-25 00:25:00,
2013-05-24 19:30:00,74.0,63.6,30.07,SW,225,10.0,16.0,70,0.00,,,0.04,Wunderground v.1.15,2013-05-25 00:30:00,
2013-05-24 19:40:00,72.4,64.0,30.08,SW,219,12.0,12.0,75,0.00,,,0.04,Wunderground v.1.15,2013-05-25 00:40:00,
2013-05-24 19:45:00,72.0,64.8,30.09,SSW,196,11.0,18.0,78,0.00,,,0.04,Wunderground v.1.15,2013-05-25 00:45:00,
2013-05-24 19:50:00,71.4,65.3,30.09,SW,229,11.0,14.0,81,0.46,,,0.07,Wunderground v.1.15,2013-05-25 00:50:00,
2013-05-24 19:55:00,70.2,64.8,30.08,SW,215,12.0,14.0,83,0.62,,,0.13,Wunderground v.1.15,2013-05-25 00:55:00,
2013-05-24 20:00:00,69.0,64.6,30.08,WSW,243,11.0,11.0,86,0.50,,,0.21,Wunderground v.1.15,2013-05-25 01:00:00,
2013-05-24 20:10:00,67.9,64.5,30.07,WSW,240,10.0,10.0,89,0.07,,,0.23,Wunderground v.1.15,2013-05-25 01:10:00,
2013-05-24 20:15:00,67.6,64.6,30.06,WSW,250,8.0,10.0,90,0.06,,,0.24,Wunderground v.1.15,2013-05-25 01:15:00,
2013-05-24 20:20:00,67.5,64.5,30.07,SW,234,7.0,7.0,90,0.06,,,0.24,Wunderground v.1.15,2013-05-25 01:20:00,
2013-05-24 20:30:00,67.3,64.3,30.06,WSW,257,7.0,7.0,90,0.00,,,0.24,Wunderground v.1.15,2013-05-25 01:30:00,
2013-05-24 20:35:00,67.2,64.5,30.06,West,264,8.0,8.0,91,0.00,,,0.24,Wunderground v.1.15,2013-05-25 01:35:00,
2013-05-24 20:40:00,67.3,64.6,30.07,WSW,255,6.0,6.0,91,0.00,,,0.24,Wunderground v.1.15,2013-05-25 01:40:00,
2013-05-24 20:50:00,67.5,64.8,30.07,WSW,257,4.0,4.0,91,0.00,,,0.25,Wunderground v.1.15,2013-05-25 01:50:00,
2013-05-24 20:55:00,67.5,64.8,30.08,WSW,254,4.0,4.0,91,0.00,,,0.25,Wunderground v.1.15,2013-05-25 01:55:00,
2013-05-24 21:00:00,67.5,64.8,30.08,WSW,254,2.0,2.0,91,0.04,,,0.26,Wunderground v.1.15,2013-05-25 02:00:00,
2013-05-24 21:10:00,67.6,65.2,30.07,WSW,240,3.0,3.0,92,0.07,,,0.27,Wunderground v.1.15,2013-05-25 02:10:00,
2013-05-24 21:15:00,67.6,65.2,30.07,WSW,238,2.0,3.0,92,0.06,,,0.27,Wunderground v.1.15,2013-05-25 02:15:00,
2013-05-24 21:20:00,67.6,65.2,30.07,WSW,237,0.0,0.0,92,0.04,,,0.27,Wunderground v.1.15,2013-05-25 02:20:00,
2013-05-24 21:30:00,67.6,65.2,30.07,SW,223,1.0,3.0,92,0.00,,,0.28,Wunderground v.1.15,2013-05-25 02:30:00,
2013-05-24 21:35:00,67.5,65.1,30.07,SW,236,3.0,3.0,92,0.00,,,0.28,Wunderground v.1.15,2013-05-25 02:35:00,
2013-05-24 21:40:00,67.5,65.1,30.07,SW,221,3.0,3.0,92,0.00,,,0.28,Wunderground v.1.15,2013-05-25 02:40:00,
2013-05-24 21:45:00,67.4,65.0,30.08,SW,220,2.0,5.0,92,0.00,,,0.28,Wunderground v.1.15,2013-05-25 02:45:00,
2013-05-24 21:50:00,67.4,65.0,30.08,SSW,210,1.0,1.0,92,0.00,,,0.28,Wunderground v.1.15,2013-05-25 02:50:00,
2013-05-24 22:00:00,67.3,64.9,30.08,SW,216,1.0,1.0,92,0.00,,,0.28,Wunderground v.1.15,2013-05-25 03:00:00,
2013-05-24 22:10:00,67.3,64.9,30.08,SW,216,1.0,1.0,92,0.00,,,0.28,Wunderground v.1.15,2013-05-25 03:10:00,
2013-05-24 22:15:00,67.3,64.9,30.08,SW,216,1.0,1.0,92,0.00,,,0.28,Wunderground v.1.15,2013-05-25 03:15:00,
2013-05-24 22:20:00,67.4,65.0,30.08,SW,216,1.0,1.0,92,0.00,,,0.28,Wunderground v.1.15,2013-05-25 03:20:00,
2013-05-24 22:25:00,67.3,64.9,30.09,SW,216,1.0,1.0,92,0.00,,,0.28,Wunderground v.1.15,2013-05-25 03:25:00,
2013-05-24 22:30:00,67.4,65.0,30.10,SW,215,0.0,3.0,92,0.00,,,0.28,Wunderground v.1.15,2013-05-25 03:30:00,
2013-05-24 22:40:00,67.5,65.1,30.14,SSE,165,3.0,9.0,92,0.00,,,0.28,Wunderground v.1.15,2013-05-25 03:40:00,
2013-05-24 22:45:00,67.6,65.2,30.15,SSE,154,9.0,18.0,92,0.00,,,0.28,Wunderground v.1.15,2013-05-25 03:45:00,
2013-05-24 22:50:00,67.7,65.0,30.14,SSE,148,12.0,26.0,91,0.00,,,0.28,Wunderground v.1.15,2013-05-25 03:50:00,
2013-05-24 22:55:00,67.5,64.8,30.14,SE,144,14.0,26.0,91,0.00,,,0.29,Wunderground v.1.15,2013-05-25 03:55:00,
2013-05-24 23:00:00,67.4,64.4,30.14,SSE,156,13.0,13.0,90,0.00,,,0.29,Wunderground v.1.15,2013-05-25 04:00:00,
2013-05-24 23:05:00,67.2,64.2,30.13,SSE,165,11.0,16.0,90,0.00,,,0.29,Wunderground v.1.15,2013-05-25 04:05:00,
2013-05-24 23:10:00,67.1,64.4,30.12,South,181,9.0,11.0,91,0.00,,,0.29,Wunderground v.1.15,2013-05-25 04:10:00,
2013-05-24 23:15:00,67.0,64.3,30.12,South,188,10.0,11.0,91,0.00,,,0.29,Wunderground v.1.15,2013-05-25 04:15:00,
2013-05-24 23:20:00,66.9,64.2,30.12,South,190,10.0,10.0,91,0.00,,,0.29,Wunderground v.1.15,2013-05-25 04:20:00,
2013-05-24 23:25:00,66.9,64.2,30.13,South,188,8.0,10.0,91,0.00,,,0.29,Wunderground v.1.15,2013-05-25 04:25:00,
2013-05-24 23:30:00,66.9,64.2,30.13,SSW,196,8.0,10.0,91,0.00,,,0.29,Wunderground v.1.15,2013-05-25 04:30:00,
2013-05-24 23:35:00,67.0,64.3,30.12,SSW,194,8.0,10.0,91,0.00,,,0.29,Wunderground v.1.15,2013-05-25 04:35:00,
2013-05-24 23:40:00,67.0,64.3,30.12,South,175,7.0,7.0,91,0.00,,,0.30,Wunderground v.1.15,2013-05-25 04:40:00,
2013-05-24 23:50:00,67.0,64.0,30.12,SSE,162,8.0,10.0,90,0.00,,,0.30,Wunderground v.1.15,2013-05-25 04:50:00,
2013-05-24 23:55:00,67.0,64.0,30.12,South,175,9.0,10.0,90,0.00,,,0.30,Wunderground v.1.15,2013-05-25 04:55:00,